owner,sensor,date,latitude,longitude,vertical_datum,wind_speed,wind_to_direction,wind_speed_of_gust,qcFlag 
COMPS,ioos:station:USF.COMPS:EGK:1,2011-03-08T17:00:00Z,27.6010,-82.7510,10.0,6.2,110.0,,'1111122,1111122,1111122' 
COMPS,ioos:station:USF.COMPS:EGK:1,2011-03-08T19:00:00Z,27.6010,-82.7510,10.0,1.5,130.0,,'1111122,1111122,1111122' 
COMPS,ioos:station:USF.COMPS:EGK:1,2011-03-08T20:00:00Z,27.6010,-82.7510,10.0,3.6,230.0,,'1111122,1111122,1111122' 
COMPS,ioos:station:USF.COMPS:EGK:1,2011-03-08T21:00:00Z,27.6010,-82.7510,10.0,2.1,270.0,,'1111122,1111122,1111122' 
COMPS,ioos:station:USF.COMPS:EGK:1,2011-03-08T22:00:00Z,27.6010,-82.7510,10.0,1.5,260.0,,'1111122,1111122,1111122' 
COMPS,ioos:station:USF.COMPS:EGK:1,2011-03-08T23:00:00Z,27.6010,-82.7510,10.0,1.0,300.0,,'1111122,1111122,1111122' 
COMPS,ioos:station:USF.COMPS:EGK:1,2011-03-09T02:00:00Z,27.6010,-82.7510,10.0,5.7,100.0,,'1111122,1111122,1111122' 
COMPS,ioos:station:USF.COMPS:EGK:1,2011-03-09T03:00:00Z,27.6010,-82.7510,10.0,8.2,110.0,,'1111122,1111122,1111122' 
COMPS,ioos:station:USF.COMPS:EGK:1,2011-03-09T04:00:00Z,27.6010,-82.7510,10.0,7.2,110.0,,'1111122,1111122,1111122' 
COMPS,ioos:station:USF.COMPS:EGK:1,2011-03-09T05:00:00Z,27.6010,-82.7510,10.0,6.7,110.0,,'1111122,1111122,1111122' 
COMPS,ioos:station:USF.COMPS:EGK:1,2011-03-09T06:00:00Z,27.6010,-82.7510,10.0,6.7,110.0,,'1111122,1111122,1111122' 
COMPS,ioos:station:USF.COMPS:EGK:1,2011-03-09T07:00:00Z,27.6010,-82.7510,10.0,6.7,110.0,,'1111122,1111122,1111122' 
COMPS,ioos:station:USF.COMPS:EGK:1,2011-03-09T08:00:00Z,27.6010,-82.7510,10.0,7.7,120.0,,'1111122,1111122,1111122' 
COMPS,ioos:station:USF.COMPS:EGK:1,2011-03-09T09:00:00Z,27.6010,-82.7510,10.0,7.7,120.0,,'1111122,1111122,1111122' 
COMPS,ioos:station:USF.COMPS:EGK:1,2011-03-09T10:00:00Z,27.6010,-82.7510,10.0,8.2,120.0,,'1111122,1111122,1111122' 
COMPS,ioos:station:USF.COMPS:EGK:1,2011-03-09T11:00:00Z,27.6010,-82.7510,10.0,8.2,120.0,,'1111122,1111122,1111122' 
COMPS,ioos:station:USF.COMPS:EGK:1,2011-03-09T12:00:00Z,27.6010,-82.7510,10.0,8.2,130.0,,'1111122,1111122,1111122' 
COMPS,ioos:station:USF.COMPS:EGK:1,2011-03-09T14:00:00Z,27.6010,-82.7510,10.0,8.2,130.0,,'1111122,1111122,1111122' 
COMPS,ioos:station:USF.COMPS:EGK:1,2011-03-09T15:00:00Z,27.6010,-82.7510,10.0,6.7,140.0,,'1111122,1111122,1111122' 
COMPS,ioos:station:USF.COMPS:EGK:1,2011-03-09T16:00:00Z,27.6010,-82.7510,10.0,8.2,160.0,,'1111122,1111122,1111122' 
COMPS,ioos:station:USF.COMPS:EGK:1,2011-03-09T17:00:00Z,27.6010,-82.7510,10.0,6.7,190.0,,'1111122,1111122,1111122' 
COMPS,ioos:station:USF.COMPS:EGK:1,2011-03-09T18:00:00Z,27.6010,-82.7510,10.0,7.2,180.0,,'1111122,1111122,1111122' 
COMPS,ioos:station:USF.COMPS:EGK:1,2011-03-09T19:00:00Z,27.6010,-82.7510,10.0,7.2,180.0,,'1111122,1111122,1111122' 
COMPS,ioos:station:USF.COMPS:EGK:1,2011-03-09T20:00:00Z,27.6010,-82.7510,10.0,5.7,190.0,,'1111122,1111122,1111122' 
COMPS,ioos:station:USF.COMPS:EGK:1,2011-03-09T22:00:00Z,27.6010,-82.7510,10.0,5.1,200.0,,'1111122,1111122,1111122' 
COMPS,ioos:station:USF.COMPS:EGK:1,2011-03-10T00:00:00Z,27.6010,-82.7510,10.0,5.1,210.0,,'1111122,1111122,1111122' 
COMPS,ioos:station:USF.COMPS:EGK:1,2011-03-10T01:00:00Z,27.6010,-82.7510,10.0,4.1,210.0,,'1111122,1111122,1111122' 
COMPS,ioos:station:USF.COMPS:EGK:1,2011-03-10T02:00:00Z,27.6010,-82.7510,10.0,4.6,210.0,,'1111122,1111122,1111122' 
COMPS,ioos:station:USF.COMPS:EGK:1,2011-03-10T03:00:00Z,27.6010,-82.7510,10.0,3.6,200.0,,'1111122,1111122,1111122' 
COMPS,ioos:station:USF.COMPS:EGK:1,2011-03-10T04:00:00Z,27.6010,-82.7510,10.0,3.6,180.0,,'1111122,1111122,1111122' 
COMPS,ioos:station:USF.COMPS:EGK:1,2011-03-10T05:00:00Z,27.6010,-82.7510,10.0,7.7,30.0,,'1111122,1111122,1111122' 
COMPS,ioos:station:USF.COMPS:EGK:1,2011-03-10T06:00:00Z,27.6010,-82.7510,10.0,7.2,60.0,,'1111122,1111122,1111122' 
COMPS,ioos:station:USF.COMPS:EGK:1,2011-03-10T07:00:00Z,27.6010,-82.7510,10.0,7.7,80.0,,'1111122,1111122,1111122' 
COMPS,ioos:station:USF.COMPS:EGK:1,2011-03-10T08:00:00Z,27.6010,-82.7510,10.0,8.2,100.0,,'1111122,1111122,1111122' 
COMPS,ioos:station:USF.COMPS:EGK:1,2011-03-10T09:00:00Z,27.6010,-82.7510,10.0,9.3,110.0,,'1111122,1111122,1111122' 
COMPS,ioos:station:USF.COMPS:EGK:1,2011-03-10T10:00:00Z,27.6010,-82.7510,10.0,8.7,110.0,,'1111122,1111122,1111122' 
COMPS,ioos:station:USF.COMPS:EGK:1,2011-03-10T11:00:00Z,27.6010,-82.7510,10.0,6.7,110.0,,'1111122,1111122,1111122' 
COMPS,ioos:station:USF.COMPS:EGK:1,2011-03-10T12:00:00Z,27.6010,-82.7510,10.0,12.9,30.0,,'1111122,1111122,1111122' 
COMPS,ioos:station:USF.COMPS:EGK:1,2011-03-10T13:00:00Z,27.6010,-82.7510,10.0,3.6,60.0,,'1111122,1111122,1111122' 
COMPS,ioos:station:USF.COMPS:EGK:1,2011-03-10T14:00:00Z,27.6010,-82.7510,10.0,9.3,120.0,,'1111122,1111122,1111122' 
COMPS,ioos:station:USF.COMPS:EGK:1,2011-03-10T15:00:00Z,27.6010,-82.7510,10.0,7.7,140.0,,'1111122,1111122,1111122' 
COMPS,ioos:station:USF.COMPS:EGK:1,2011-03-10T16:00:00Z,27.6010,-82.7510,10.0,4.6,160.0,,'1111122,1111122,1111122' 
COMPS,ioos:station:USF.COMPS:EGK:1,2011-03-10T17:00:00Z,27.6010,-82.7510,10.0,4.1,200.0,,'1111122,1111122,1111122' 
COMPS,ioos:station:USF.COMPS:EGK:1,2011-03-10T18:00:00Z,27.6010,-82.7510,10.0,4.6,210.0,,'1111122,1111122,1111122' 
COMPS,ioos:station:USF.COMPS:EGK:1,2011-03-10T19:00:00Z,27.6010,-82.7510,10.0,10.3,330.0,,'1111122,1111122,1111122' 
COMPS,ioos:station:USF.COMPS:EGK:1,2011-03-10T23:00:00Z,27.6010,-82.7510,10.0,8.7,330.0,,'1111122,1111122,1111122' 
COMPS,ioos:station:USF.COMPS:EGK:1,2011-03-11T00:00:00Z,27.6010,-82.7510,10.0,9.3,340.0,,'1111122,1111122,1111122' 
COMPS,ioos:station:USF.COMPS:EGK:1,2011-03-11T01:00:00Z,27.6010,-82.7510,10.0,11.3,340.0,,'1111122,1111122,1111122' 
COMPS,ioos:station:USF.COMPS:EGK:1,2011-03-11T02:00:00Z,27.6010,-82.7510,10.0,9.8,340.0,,'1111122,1111122,1111122' 
COMPS,ioos:station:USF.COMPS:EGK:1,2011-03-11T03:00:00Z,27.6010,-82.7510,10.0,10.3,340.0,,'1111122,1111122,1111122' 
COMPS,ioos:station:USF.COMPS:EGK:1,2011-03-11T04:00:00Z,27.6010,-82.7510,10.0,8.7,340.0,,'1111122,1111122,1111122' 
COMPS,ioos:station:USF.COMPS:EGK:1,2011-03-11T05:00:00Z,27.6010,-82.7510,10.0,8.7,350.0,,'1111122,1111122,1111122' 
COMPS,ioos:station:USF.COMPS:EGK:1,2011-03-11T06:00:00Z,27.6010,-82.7510,10.0,9.3,360.0,,'1111122,1111122,1111122' 
COMPS,ioos:station:USF.COMPS:EGK:1,2011-03-11T07:00:00Z,27.6010,-82.7510,10.0,8.7,350.0,,'1111122,1111122,1111122' 
COMPS,ioos:station:USF.COMPS:EGK:1,2011-03-11T09:00:00Z,27.6010,-82.7510,10.0,10.3,340.0,,'1111122,1111122,1111122' 
COMPS,ioos:station:USF.COMPS:EGK:1,2011-03-11T10:00:00Z,27.6010,-82.7510,10.0,9.8,350.0,,'1111122,1111122,1111122' 
COMPS,ioos:station:USF.COMPS:EGK:1,2011-03-11T11:00:00Z,27.6010,-82.7510,10.0,8.7,350.0,,'1111122,1111122,1111122' 
COMPS,ioos:station:USF.COMPS:EGK:1,2011-03-11T13:00:00Z,27.6010,-82.7510,10.0,10.3,340.0,,'1111122,1111122,1111122' 
COMPS,ioos:station:USF.COMPS:EGK:1,2011-03-11T14:00:00Z,27.6010,-82.7510,10.0,8.7,350.0,,'1111122,1111122,1111122' 
COMPS,ioos:station:USF.COMPS:EGK:1,2011-03-11T15:00:00Z,27.6010,-82.7510,10.0,10.3,340.0,,'1111122,1111122,1111122' 
COMPS,ioos:station:USF.COMPS:EGK:1,2011-03-11T16:00:00Z,27.6010,-82.7510,10.0,8.7,350.0,,'1111122,1111122,1111122' 
COMPS,ioos:station:USF.COMPS:EGK:1,2011-03-11T17:00:00Z,27.6010,-82.7510,10.0,8.7,330.0,,'1111122,1111122,1111122' 
COMPS,ioos:station:USF.COMPS:EGK:1,2011-03-11T18:00:00Z,27.6010,-82.7510,10.0,9.3,330.0,,'1111122,1111122,1111122' 
COMPS,ioos:station:USF.COMPS:EGK:1,2011-03-11T19:00:00Z,27.6010,-82.7510,10.0,9.3,340.0,,'1111122,1111122,1111122' 
COMPS,ioos:station:USF.COMPS:EGK:1,2011-03-11T20:00:00Z,27.6010,-82.7510,10.0,8.2,340.0,,'1111122,1111122,1111122' 
COMPS,ioos:station:USF.COMPS:EGK:1,2011-03-11T21:00:00Z,27.6010,-82.7510,10.0,8.2,340.0,,'1111122,1111122,1111122' 
COMPS,ioos:station:USF.COMPS:EGK:1,2011-03-12T00:00:00Z,27.6010,-82.7510,10.0,7.2,350.0,,'1111122,1111122,1111122' 
COMPS,ioos:station:USF.COMPS:EGK:1,2011-03-12T01:00:00Z,27.6010,-82.7510,10.0,6.2,350.0,,'1111122,1111122,1111122' 
COMPS,ioos:station:USF.COMPS:EGK:1,2011-03-12T02:00:00Z,27.6010,-82.7510,10.0,7.7,10.0,,'1111122,1111122,1111122' 
COMPS,ioos:station:USF.COMPS:EGK:1,2011-03-12T03:00:00Z,27.6010,-82.7510,10.0,4.6,10.0,,'1111122,1111122,1111122' 
COMPS,ioos:station:USF.COMPS:EGK:1,2011-03-12T04:00:00Z,27.6010,-82.7510,10.0,5.1,10.0,,'1111122,1111122,1111122' 
COMPS,ioos:station:USF.COMPS:EGK:1,2011-03-12T05:00:00Z,27.6010,-82.7510,10.0,5.1,20.0,,'1111122,1111122,1111122' 
COMPS,ioos:station:USF.COMPS:EGK:1,2011-03-12T06:00:00Z,27.6010,-82.7510,10.0,5.7,20.0,,'1111122,1111122,1111122' 
COMPS,ioos:station:USF.COMPS:EGK:1,2011-03-12T07:00:00Z,27.6010,-82.7510,10.0,5.1,30.0,,'1111122,1111122,1111122' 
COMPS,ioos:station:USF.COMPS:EGK:1,2011-03-12T08:00:00Z,27.6010,-82.7510,10.0,4.6,30.0,,'1111122,1111122,1111122' 
COMPS,ioos:station:USF.COMPS:EGK:1,2011-03-12T09:00:00Z,27.6010,-82.7510,10.0,4.6,30.0,,'1111122,1111122,1111122' 
COMPS,ioos:station:USF.COMPS:EGK:1,2011-03-12T10:00:00Z,27.6010,-82.7510,10.0,4.6,40.0,,'1111122,1111122,1111122' 
COMPS,ioos:station:USF.COMPS:EGK:1,2011-03-12T11:00:00Z,27.6010,-82.7510,10.0,5.1,40.0,,'1111122,1111122,1111122' 
COMPS,ioos:station:USF.COMPS:EGK:1,2011-03-12T12:00:00Z,27.6010,-82.7510,10.0,5.1,40.0,,'1111122,1111122,1111122' 
COMPS,ioos:station:USF.COMPS:EGK:1,2011-03-12T13:00:00Z,27.6010,-82.7510,10.0,4.6,60.0,,'1111122,1111122,1111122' 
COMPS,ioos:station:USF.COMPS:EGK:1,2011-03-12T14:00:00Z,27.6010,-82.7510,10.0,5.1,80.0,,'1111122,1111122,1111122' 
COMPS,ioos:station:USF.COMPS:EGK:1,2011-03-12T16:00:00Z,27.6010,-82.7510,10.0,4.1,60.0,,'1111122,1111122,1111122' 
COMPS,ioos:station:USF.COMPS:EGK:1,2011-03-12T17:00:00Z,27.6010,-82.7510,10.0,3.1,50.0,,'1111122,1111122,1111122' 
COMPS,ioos:station:USF.COMPS:EGK:1,2011-03-12T18:00:00Z,27.6010,-82.7510,10.0,2.1,60.0,,'1111122,1111122,1111122' 
COMPS,ioos:station:USF.COMPS:EGK:1,2011-03-12T19:00:00Z,27.6010,-82.7510,10.0,2.6,330.0,,'1111122,1111122,1111122' 
COMPS,ioos:station:USF.COMPS:EGK:1,2011-03-12T20:00:00Z,27.6010,-82.7510,10.0,3.6,340.0,,'1111122,1111122,1111122' 
COMPS,ioos:station:USF.COMPS:EGK:1,2011-03-12T21:00:00Z,27.6010,-82.7510,10.0,4.6,330.0,,'1111122,1111122,1111122' 
COMPS,ioos:station:USF.COMPS:EGK:1,2011-03-12T22:00:00Z,27.6010,-82.7510,10.0,4.6,320.0,,'1111122,1111122,1111122' 
COMPS,ioos:station:USF.COMPS:EGK:1,2011-03-12T23:00:00Z,27.6010,-82.7510,10.0,3.6,320.0,,'1111122,1111122,1111122' 
COMPS,ioos:station:USF.COMPS:EGK:1,2011-03-13T00:00:00Z,27.6010,-82.7510,10.0,4.1,330.0,,'1111122,1111122,1111122' 
COMPS,ioos:station:USF.COMPS:EGK:1,2011-03-13T02:00:00Z,27.6010,-82.7510,10.0,3.1,320.0,,'1111122,1111122,1111122' 
COMPS,ioos:station:USF.COMPS:EGK:1,2011-03-13T03:00:00Z,27.6010,-82.7510,10.0,3.1,320.0,,'1111122,1111122,1111122' 
COMPS,ioos:station:USF.COMPS:EGK:1,2011-03-13T04:00:00Z,27.6010,-82.7510,10.0,2.6,330.0,,'1111122,1111122,1111122' 
COMPS,ioos:station:USF.COMPS:EGK:1,2011-03-13T05:00:00Z,27.6010,-82.7510,10.0,2.6,350.0,,'1111122,1111122,1111122' 
COMPS,ioos:station:USF.COMPS:EGK:1,2011-03-13T07:00:00Z,27.6010,-82.7510,10.0,3.6,70.0,,'1111122,1111122,1111122' 
COMPS,ioos:station:USF.COMPS:EGK:1,2011-03-13T09:00:00Z,27.6010,-82.7510,10.0,3.1,70.0,,'1111122,1111122,1111122' 
COMPS,ioos:station:USF.COMPS:EGK:1,2011-03-13T10:00:00Z,27.6010,-82.7510,10.0,4.6,40.0,,'1111122,1111122,1111122' 
COMPS,ioos:station:USF.COMPS:EGK:1,2011-03-13T11:00:00Z,27.6010,-82.7510,10.0,5.1,50.0,,'1111122,1111122,1111122' 
COMPS,ioos:station:USF.COMPS:EGK:1,2011-03-13T12:00:00Z,27.6010,-82.7510,10.0,5.1,50.0,,'1111122,1111122,1111122' 
COMPS,ioos:station:USF.COMPS:EGK:1,2011-03-13T13:00:00Z,27.6010,-82.7510,10.0,4.6,70.0,,'1111122,1111122,1111122' 
COMPS,ioos:station:USF.COMPS:EGK:1,2011-03-13T14:00:00Z,27.6010,-82.7510,10.0,6.2,80.0,,'1111122,1111122,1111122' 
COMPS,ioos:station:USF.COMPS:EGK:1,2011-03-13T15:00:00Z,27.6010,-82.7510,10.0,4.6,80.0,,'1111122,1111122,1111122' 
COMPS,ioos:station:USF.COMPS:EGK:1,2011-03-13T16:00:00Z,27.6010,-82.7510,10.0,3.1,90.0,,'1111122,1111122,1111122' 
COMPS,ioos:station:USF.COMPS:EGK:1,2011-03-13T17:00:00Z,27.6010,-82.7510,10.0,1.0,120.0,,'1111122,1111122,1111122' 
COMPS,ioos:station:USF.COMPS:EGK:1,2011-03-13T18:00:00Z,27.6010,-82.7510,10.0,2.6,250.0,,'1111122,1111122,1111122' 
COMPS,ioos:station:USF.COMPS:EGK:1,2011-03-13T19:00:00Z,27.6010,-82.7510,10.0,2.6,260.0,,'1111122,1111122,1111122' 
COMPS,ioos:station:USF.COMPS:EGK:1,2011-03-13T20:00:00Z,27.6010,-82.7510,10.0,3.1,260.0,,'1111122,1111122,1111122' 
COMPS,ioos:station:USF.COMPS:EGK:1,2011-03-13T22:00:00Z,27.6010,-82.7510,10.0,2.6,260.0,,'1111122,1111122,1111122' 
COMPS,ioos:station:USF.COMPS:EGK:1,2011-03-13T23:00:00Z,27.6010,-82.7510,10.0,2.6,280.0,,'1111122,1111122,1111122' 
COMPS,ioos:station:USF.COMPS:EGK:1,2011-03-14T00:00:00Z,27.6010,-82.7510,10.0,2.6,300.0,,'1111122,1111122,1111122' 
COMPS,ioos:station:USF.COMPS:EGK:1,2011-03-14T01:00:00Z,27.6010,-82.7510,10.0,3.1,310.0,,'1111122,1111122,1111122' 
COMPS,ioos:station:USF.COMPS:EGK:1,2011-03-14T02:00:00Z,27.6010,-82.7510,10.0,4.1,330.0,,'1111122,1111122,1111122' 
COMPS,ioos:station:USF.COMPS:EGK:1,2011-03-14T03:00:00Z,27.6010,-82.7510,10.0,3.1,350.0,,'1111122,1111122,1111122' 
COMPS,ioos:station:USF.COMPS:EGK:1,2011-03-14T04:00:00Z,27.6010,-82.7510,10.0,3.1,360.0,,'1111122,1111122,1111122' 
COMPS,ioos:station:USF.COMPS:EGK:1,2011-03-14T05:00:00Z,27.6010,-82.7510,10.0,3.6,20.0,,'1111122,1111122,1111122' 
COMPS,ioos:station:USF.COMPS:EGK:1,2011-03-14T06:00:00Z,27.6010,-82.7510,10.0,3.6,40.0,,'1111122,1111122,1111122' 
COMPS,ioos:station:USF.COMPS:EGK:1,2011-03-14T07:00:00Z,27.6010,-82.7510,10.0,4.6,40.0,,'1111122,1111122,1111122' 
COMPS,ioos:station:USF.COMPS:EGK:1,2011-03-14T08:00:00Z,27.6010,-82.7510,10.0,3.1,80.0,,'1111122,1111122,1111122' 
COMPS,ioos:station:USF.COMPS:EGK:1,2011-03-14T09:00:00Z,27.6010,-82.7510,10.0,3.6,90.0,,'1111122,1111122,1111122' 
COMPS,ioos:station:USF.COMPS:EGK:1,2011-03-14T11:00:00Z,27.6010,-82.7510,10.0,4.1,70.0,,'1111122,1111122,1111122' 
COMPS,ioos:station:USF.COMPS:EGK:1,2011-03-14T12:00:00Z,27.6010,-82.7510,10.0,4.6,70.0,,'1111122,1111122,1111122' 
COMPS,ioos:station:USF.COMPS:EGK:1,2011-03-14T13:00:00Z,27.6010,-82.7510,10.0,3.6,100.0,,'1111122,1111122,1111122' 
COMPS,ioos:station:USF.COMPS:EGK:1,2011-03-14T14:00:00Z,27.6010,-82.7510,10.0,2.6,120.0,,'1111122,1111122,1111122' 
COMPS,ioos:station:USF.COMPS:EGK:1,2011-03-14T15:00:00Z,27.6010,-82.7510,10.0,2.6,150.0,,'1111122,1111122,1111122' 
COMPS,ioos:station:USF.COMPS:EGK:1,2011-03-14T16:00:00Z,27.6010,-82.7510,10.0,3.1,170.0,,'1111122,1111122,1111122' 
COMPS,ioos:station:USF.COMPS:EGK:1,2011-03-14T17:00:00Z,27.6010,-82.7510,10.0,2.6,170.0,,'1111122,1111122,1111122' 
COMPS,ioos:station:USF.COMPS:EGK:1,2011-03-14T18:00:00Z,27.6010,-82.7510,10.0,3.1,250.0,,'1111122,1111122,1111122' 
COMPS,ioos:station:USF.COMPS:EGK:1,2011-03-14T19:00:00Z,27.6010,-82.7510,10.0,3.1,260.0,,'1111122,1111122,1111122' 
COMPS,ioos:station:USF.COMPS:EGK:1,2011-03-14T20:00:00Z,27.6010,-82.7510,10.0,2.6,270.0,,'1111122,1111122,1111122' 
COMPS,ioos:station:USF.COMPS:EGK:1,2011-03-14T22:00:00Z,27.6010,-82.7510,10.0,3.1,280.0,,'1111122,1111122,1111122' 
COMPS,ioos:station:USF.COMPS:EGK:1,2011-03-14T23:00:00Z,27.6010,-82.7510,10.0,3.6,320.0,,'1111122,1111122,1111122' 
COMPS,ioos:station:USF.COMPS:EGK:1,2011-03-15T00:00:00Z,27.6010,-82.7510,10.0,5.1,330.0,,'1111122,1111122,1111122' 
COMPS,ioos:station:USF.COMPS:EGK:1,2011-03-15T01:00:00Z,27.6010,-82.7510,10.0,4.6,340.0,,'1111122,1111122,1111122' 
COMPS,ioos:station:USF.COMPS:EGK:1,2011-03-15T03:00:00Z,27.6010,-82.7510,10.0,3.6,360.0,,'1111122,1111122,1111122' 
COMPS,ioos:station:USF.COMPS:EGK:1,2011-03-15T05:00:00Z,27.6010,-82.7510,10.0,3.1,80.0,,'1111122,1111122,1111122' 
COMPS,ioos:station:USF.COMPS:EGK:1,2011-03-15T06:00:00Z,27.6010,-82.7510,10.0,3.6,80.0,,'1111122,1111122,1111122' 
COMPS,ioos:station:USF.COMPS:EGK:1,2011-03-15T07:00:00Z,27.6010,-82.7510,10.0,3.1,80.0,,'1111122,1111122,1111122' 
COMPS,ioos:station:USF.COMPS:EGK:1,2011-03-15T08:00:00Z,27.6010,-82.7510,10.0,2.6,80.0,,'1111122,1111122,1111122' 
COMPS,ioos:station:USF.COMPS:EGK:1,2011-03-15T09:00:00Z,27.6010,-82.7510,10.0,3.1,100.0,,'1111122,1111122,1111122' 
COMPS,ioos:station:USF.COMPS:EGK:1,2011-03-15T10:00:00Z,27.6010,-82.7510,10.0,3.1,90.0,,'1111122,1111122,1111122' 
COMPS,ioos:station:USF.COMPS:EGK:1,2011-03-15T11:00:00Z,27.6010,-82.7510,10.0,2.6,80.0,,'1111122,1111122,1111122' 
COMPS,ioos:station:USF.COMPS:EGK:1,2011-03-15T12:00:00Z,27.6010,-82.7510,10.0,1.0,70.0,,'1111122,1111122,1111122' 
COMPS,ioos:station:USF.COMPS:EGK:1,2011-03-15T13:00:00Z,27.6010,-82.7510,10.0,2.1,110.0,,'1111122,1111122,1111122' 
COMPS,ioos:station:USF.COMPS:EGK:1,2011-03-15T14:00:00Z,27.6010,-82.7510,10.0,1.5,120.0,,'1111122,1111122,1111122' 
COMPS,ioos:station:USF.COMPS:EGK:1,2011-03-15T15:00:00Z,27.6010,-82.7510,10.0,1.5,150.0,,'1111122,1111122,1111122' 
COMPS,ioos:station:USF.COMPS:EGK:1,2011-03-15T16:00:00Z,27.6010,-82.7510,10.0,1.0,260.0,,'1111122,1111122,1111122' 
COMPS,ioos:station:USF.COMPS:EGK:1,2011-03-15T17:00:00Z,27.6010,-82.7510,10.0,1.0,250.0,,'1111122,1111122,1111122' 
COMPS,ioos:station:USF.COMPS:EGK:1,2011-03-15T18:00:00Z,27.6010,-82.7510,10.0,1.5,240.0,,'1111122,1111122,1111122' 
COMPS,ioos:station:USF.COMPS:EGK:1,2011-03-15T19:00:00Z,27.6010,-82.7510,10.0,2.1,250.0,,'1111122,1111122,1111122' 
COMPS,ioos:station:USF.COMPS:EGK:1,2011-03-15T20:00:00Z,27.6010,-82.7510,10.0,2.1,290.0,,'1111122,1111122,1111122' 
COMPS,ioos:station:USF.COMPS:EGK:1,2011-03-15T22:00:00Z,27.6010,-82.7510,10.0,1.5,330.0,,'1111122,1111122,1111122' 
COMPS,ioos:station:USF.COMPS:EGK:1,2011-03-15T23:00:00Z,27.6010,-82.7510,10.0,1.5,310.0,,'1111122,1111122,1111122' 
COMPS,ioos:station:USF.COMPS:EGK:1,2011-03-16T00:00:00Z,27.6010,-82.7510,10.0,2.1,330.0,,'1111122,1111122,1111122' 
COMPS,ioos:station:USF.COMPS:EGK:1,2011-03-16T01:00:00Z,27.6010,-82.7510,10.0,2.6,340.0,,'1111122,1111122,1111122' 
COMPS,ioos:station:USF.COMPS:EGK:1,2011-03-16T02:00:00Z,27.6010,-82.7510,10.0,2.1,340.0,,'1111122,1111122,1111122' 
COMPS,ioos:station:USF.COMPS:EGK:1,2011-03-16T03:00:00Z,27.6010,-82.7510,10.0,2.6,340.0,,'1111122,1111122,1111122' 
COMPS,ioos:station:USF.COMPS:EGK:1,2011-03-16T04:00:00Z,27.6010,-82.7510,10.0,1.5,330.0,,'1111122,1111122,1111122' 
COMPS,ioos:station:USF.COMPS:EGK:1,2011-03-16T05:00:00Z,27.6010,-82.7510,10.0,1.5,80.0,,'1111122,1111122,1111122' 
COMPS,ioos:station:USF.COMPS:EGK:1,2011-03-16T06:00:00Z,27.6010,-82.7510,10.0,3.1,70.0,,'1111122,1111122,1111122' 
COMPS,ioos:station:USF.COMPS:EGK:1,2011-03-16T07:00:00Z,27.6010,-82.7510,10.0,4.6,120.0,,'1111122,1111122,1111122' 
COMPS,ioos:station:USF.COMPS:EGK:1,2011-03-16T08:00:00Z,27.6010,-82.7510,10.0,3.6,90.0,,'1111122,1111122,1111122' 
COMPS,ioos:station:USF.COMPS:EGK:1,2011-03-16T09:00:00Z,27.6010,-82.7510,10.0,2.6,110.0,,'1111122,1111122,1111122' 
COMPS,ioos:station:USF.COMPS:EGK:1,2011-03-16T10:00:00Z,27.6010,-82.7510,10.0,2.1,110.0,,'1111122,1111122,1111122' 
COMPS,ioos:station:USF.COMPS:EGK:1,2011-03-16T11:00:00Z,27.6010,-82.7510,10.0,1.5,60.0,,'1111122,1111122,1111122' 
COMPS,ioos:station:USF.COMPS:EGK:1,2011-03-16T12:00:00Z,27.6010,-82.7510,10.0,2.6,80.0,,'1111122,1111122,1111122' 
COMPS,ioos:station:USF.COMPS:EGK:1,2011-03-16T13:00:00Z,27.6010,-82.7510,10.0,2.1,100.0,,'1111122,1111122,1111122' 
COMPS,ioos:station:USF.COMPS:EGK:1,2011-03-16T14:00:00Z,27.6010,-82.7510,10.0,2.1,130.0,,'1111122,1111122,1111122' 
COMPS,ioos:station:USF.COMPS:EGK:1,2011-03-16T15:00:00Z,27.6010,-82.7510,10.0,2.6,160.0,,'1111122,1111122,1111122' 
COMPS,ioos:station:USF.COMPS:EGK:1,2011-03-16T16:00:00Z,27.6010,-82.7510,10.0,2.1,170.0,,'1111122,1111122,1111122' 
COMPS,ioos:station:USF.COMPS:EGK:1,2011-03-16T17:00:00Z,27.6010,-82.7510,10.0,1.5,220.0,,'1111122,1111122,1111122' 
COMPS,ioos:station:USF.COMPS:EGK:1,2011-03-16T18:00:00Z,27.6010,-82.7510,10.0,2.6,250.0,,'1111122,1111122,1111122' 
COMPS,ioos:station:USF.COMPS:EGK:1,2011-03-16T19:00:00Z,27.6010,-82.7510,10.0,3.1,240.0,,'1111122,1111122,1111122' 
COMPS,ioos:station:USF.COMPS:EGK:1,2011-03-16T20:00:00Z,27.6010,-82.7510,10.0,2.6,270.0,,'1111122,1111122,1111122' 
COMPS,ioos:station:USF.COMPS:EGK:1,2011-03-16T21:00:00Z,27.6010,-82.7510,10.0,2.6,310.0,,'1111122,1111122,1111122' 
COMPS,ioos:station:USF.COMPS:EGK:1,2011-03-16T22:00:00Z,27.6010,-82.7510,10.0,3.1,320.0,,'1111122,1111122,1111122' 
COMPS,ioos:station:USF.COMPS:EGK:1,2011-03-17T00:00:00Z,27.6010,-82.7510,10.0,3.1,320.0,,'1111122,1111122,1111122' 
COMPS,ioos:station:USF.COMPS:EGK:1,2011-03-17T01:00:00Z,27.6010,-82.7510,10.0,3.1,310.0,,'1111122,1111122,1111122' 
COMPS,ioos:station:USF.COMPS:EGK:1,2011-03-17T02:00:00Z,27.6010,-82.7510,10.0,3.6,320.0,,'1111122,1111122,1111122' 
COMPS,ioos:station:USF.COMPS:EGK:1,2011-03-17T03:00:00Z,27.6010,-82.7510,10.0,3.6,320.0,,'1111122,1111122,1111122' 
COMPS,ioos:station:USF.COMPS:EGK:1,2011-03-17T04:00:00Z,27.6010,-82.7510,10.0,4.6,330.0,,'1111122,1111122,1111122' 
COMPS,ioos:station:USF.COMPS:EGK:1,2011-03-17T05:00:00Z,27.6010,-82.7510,10.0,5.1,340.0,,'1111122,1111122,1111122' 
COMPS,ioos:station:USF.COMPS:EGK:1,2011-03-17T07:00:00Z,27.6010,-82.7510,10.0,4.1,340.0,,'1111122,1111122,1111122' 
COMPS,ioos:station:USF.COMPS:EGK:1,2011-03-17T08:00:00Z,27.6010,-82.7510,10.0,4.6,350.0,,'1111122,1111122,1111122' 
COMPS,ioos:station:USF.COMPS:EGK:1,2011-03-17T09:00:00Z,27.6010,-82.7510,10.0,4.1,360.0,,'1111122,1111122,1111122' 
COMPS,ioos:station:USF.COMPS:EGK:1,2011-03-17T10:00:00Z,27.6010,-82.7510,10.0,4.1,40.0,,'1111122,1111122,1111122' 
COMPS,ioos:station:USF.COMPS:EGK:1,2011-03-17T11:00:00Z,27.6010,-82.7510,10.0,4.1,50.0,,'1111122,1111122,1111122' 
COMPS,ioos:station:USF.COMPS:EGK:1,2011-03-17T13:00:00Z,27.6010,-82.7510,10.0,4.1,40.0,,'1111122,1111122,1111122' 
COMPS,ioos:station:USF.COMPS:EGK:1,2011-03-17T14:00:00Z,27.6010,-82.7510,10.0,4.1,50.0,,'1111122,1111122,1111122' 
COMPS,ioos:station:USF.COMPS:EGK:1,2011-03-17T16:00:00Z,27.6010,-82.7510,10.0,3.6,90.0,,'1111122,1111122,1111122' 
COMPS,ioos:station:USF.COMPS:EGK:1,2011-03-17T17:00:00Z,27.6010,-82.7510,10.0,1.5,90.0,,'1111122,1111122,1111122' 
COMPS,ioos:station:USF.COMPS:EGK:1,2011-03-17T18:00:00Z,27.6010,-82.7510,10.0,1.5,340.0,,'1111122,1111122,1111122' 
COMPS,ioos:station:USF.COMPS:EGK:1,2011-03-17T19:00:00Z,27.6010,-82.7510,10.0,2.6,320.0,,'1111122,1111122,1111122' 
COMPS,ioos:station:USF.COMPS:EGK:1,2011-03-17T20:00:00Z,27.6010,-82.7510,10.0,3.6,330.0,,'1111122,1111122,1111122' 
COMPS,ioos:station:USF.COMPS:EGK:1,2011-03-17T21:00:00Z,27.6010,-82.7510,10.0,4.1,320.0,,'1111122,1111122,1111122' 
 
DISCLAIMER: The Gulf of Mexico Coastal and Ocean Observing (GCOOS) Data Portal aggregates data from the regional data providers for the convenience of all data users. Data published on this website should not be used for navigation or certain other uses as we cannot guarantee data accuracy or availability. The data and delivery services are provided 'as is' without warranty of any kind. Data Source: Gulf of Mexico Coastal Ocean Observing System Data Portal (http://data.gcoos.org/) 
